Redmond, OR

6:22 PM PDT on September 22, 2017 (GMT -0700)
Roberts Field Airport

Weather History for KRDM - May, 2013

Change the Weather History Date:

Sunday, May 26, 2013

  Actual Average Record
Temperature  
Mean Temperature 51 °F 54 °F  
Max Temperature 64 °F 70 °F 88 °F (1950)
Min Temperature 38 °F 38 °F 22 °F (1964)
Degree Days  
Heating Degree Days 14 11  
Month to date heating degree days 319 373  
Since 1 July heating degree days 6165 6444  
Cooling Degree Days 0 0  
Month to date cooling degree days 9 0  
Year to date cooling degree days 9 0  
Growing Degree Days 2 (Base 50)    
Moisture  
Dew Point 41 °F    
Average Humidity 64    
Maximum Humidity 93    
Minimum Humidity 34    
Precipitation  
Precipitation 0.09 in 0.04 in 0.29 in (1953)
Month to date precipitation 0.25 0.84  
Year to date precipitation 1.10 3.85  
Sea Level Pressure  
Sea Level Pressure 29.97 in    
Wind  
Wind Speed 7 mph (WNW)    
Max Wind Speed 22 mph    
Max Gust Speed 29 mph    
Visibility 10 miles    
Events Rain    
T = Trace of Precipitation, MM = Missing Value Source: NWS Daily Summary

Daily Weather History Graph

Daily Weather History Graph

Search for Another Location

Airport or City:

Trip Planner

Search our weather history database for the weather conditions in past years. The results will help you decide how hot, cold, wet, or windy it might be!

Date:

Astronomy

May. 26, 2013 Rise Set
Actual Time 5:27 AM PDT 8:36 PM PDT
Civil Twilight 4:52 AM PDT 9:11 PM PDT
Nautical Twilight 4:07 AM PDT 9:56 PM PDT
Astronomical Twilight 3:12 AM PDT 10:51 PM PDT
Moon 10:27 PM PDT (5/26) 7:02 AM PDT (5/26)
Length of Visible Light 16h 19m
Length of Day
15h 09m
Waning Gibbous, 96% of the Moon is Illuminated
May 26
Waning Gibbous
May 31
Last Quarter
Jun 8
New
Jun 16
First Quarter
Jun 23
Full

Hourly Weather History & Observations

Time (PDT) Temp. Windchill Dew Point Humidity Pressure Visibility Wind Dir Wind Speed Gust Speed Precip Events Conditions
12:56 AM 46.9 °F - 42.1 °F 83% 29.94 in 10.0 mi WSW 5.8 mph - N/A   Overcast
1:56 AM 48.0 °F - 43.0 °F 83% 29.93 in 10.0 mi Calm Calm - 0.00 in Rain Light Rain
2:56 AM 46.9 °F - 45.0 °F 93% 29.93 in 10.0 mi Calm Calm - 0.03 in Rain Light Rain
3:56 AM 46.9 °F - 45.0 °F 93% 29.92 in 10.0 mi SSE 4.6 mph - 0.01 in Rain Light Rain
4:56 AM 46.9 °F - 44.1 °F 90% 29.91 in 10.0 mi SE 4.6 mph - 0.02 in Rain Light Rain
5:56 AM 46.9 °F - 45.0 °F 93% 29.93 in 10.0 mi Calm Calm - 0.01 in Rain Light Rain
6:56 AM 46.9 °F - 46.0 °F 97% 29.94 in 10.0 mi Calm Calm - 0.00 in   Overcast
7:03 AM 48.2 °F - 46.4 °F 93% 29.96 in 10.0 mi North 3.5 mph - N/A   Overcast
7:14 AM 48.2 °F - 46.4 °F 93% 29.97 in 10.0 mi North 4.6 mph - N/A   Overcast
7:29 AM 48.2 °F - 46.4 °F 93% 29.97 in 10.0 mi NNE 4.6 mph - N/A   Overcast
7:56 AM 48.9 °F - 45.0 °F 86% 29.96 in 10.0 mi Calm Calm - N/A   Overcast
8:15 AM 48.2 °F - 44.6 °F 87% 29.98 in 10.0 mi NW 5.8 mph - N/A   Overcast
8:51 AM 48.2 °F - 44.6 °F 87% 29.99 in 10.0 mi NW 8.1 mph - 0.00 in Rain Light Rain
8:56 AM 48.0 °F - 43.0 °F 83% 29.98 in 7.0 mi WNW 6.9 mph - 0.01 in Rain Light Rain
9:56 AM 51.1 °F - 42.1 °F 71% 29.98 in 10.0 mi Variable 4.6 mph - 0.01 in   Mostly Cloudy
10:56 AM 54.0 °F - 42.1 °F 64% 29.98 in 10.0 mi West 4.6 mph - N/A   Mostly Cloudy
11:56 AM 55.9 °F - 37.9 °F 51% 29.97 in 10.0 mi Variable 4.6 mph - N/A   Mostly Cloudy
12:56 PM 57.9 °F - 36.0 °F 44% 29.96 in 10.0 mi Variable 4.6 mph - N/A   Mostly Cloudy
1:56 PM 61.0 °F - 35.1 °F 38% 29.96 in 10.0 mi WNW 8.1 mph 17.3 mph N/A   Mostly Cloudy
2:56 PM 62.1 °F - 34.0 °F 35% 29.96 in 10.0 mi WNW 12.7 mph - N/A   Mostly Cloudy
3:56 PM 62.1 °F - 36.0 °F 38% 29.96 in 10.0 mi NW 15.0 mph - N/A   Mostly Cloudy
4:56 PM 61.0 °F - 34.0 °F 36% 29.97 in 10.0 mi West 20.7 mph 25.3 mph N/A   Clear
5:56 PM 60.1 °F - 33.1 °F 36% 29.97 in 10.0 mi WNW 17.3 mph 24.2 mph N/A   Partly Cloudy
6:56 PM 57.9 °F - 37.0 °F 46% 29.99 in 10.0 mi WNW 17.3 mph - N/A   Scattered Clouds
7:56 PM 54.0 °F - 37.0 °F 53% 30.00 in 10.0 mi NW 12.7 mph - N/A   Partly Cloudy
8:56 PM 51.1 °F - 37.9 °F 61% 30.02 in 10.0 mi NNW 6.9 mph - N/A   Mostly Cloudy
9:56 PM 50.0 °F - 39.0 °F 66% 30.03 in 10.0 mi Calm Calm - N/A   Scattered Clouds
10:56 PM 41.0 °F 39.0 °F 35.1 °F 79% 30.03 in 10.0 mi ESE 3.5 mph - N/A   Clear
11:56 PM 41.0 °F 38.0 °F 36.0 °F 82% 30.01 in 10.0 mi SSE 4.6 mph - N/A   Clear